Location: The Saddle
(36.8333°N, 80.3417°W)
Time: 16:47:49
(UTC-04:00)

BlueWalker 3 - Pass Details

Date: 20 October 2024
Orbit: 471 x 482 km, 53.2° (Epoch: 02 November)

Event Time Altitude Azimuth Distance (km) Brightness Sun altitude
Exits shadow 06:47:06 - 323° (NW) 1,992 4.6 -10.1°
Reaches altitude 10° 06:48:02 10° 327° (NNW) 1,632 4.2 -9.9°
Maximum altitude 06:51:30 39° 38° (NE) 725 3.0 -9.2°
Drops below altitude 10° 06:54:57 10° 108° (ESE) 1,628 6.1 -8.5°
Sets 06:57:12 0° 116° (ESE) 2,504 7.1 -8.1°
